1500678000.14,43061,22.56,74252.0,6.07,-25.23,-25.71,0,*7B
1500678001.37,43062,22.56,74250.5,6.07,-25.19,-25.71,0,*71
1500678002.66,43063,22.56,74252.0,6.05,-25.29,-25.71,0,*71
1500678003.89,43064,22.56,74252.5,6.07,-25.23,-25.71,0,*7E
1500678005.12,43065,22.56,74254.5,6.05,-25.19,-25.49,0,*7F
1500678006.34,43066,22.56,74250.8,6.07,-25.13,-25.49,0,*74
1500678007.56,43067,22.56,74252.0,6.07,-25.13,-25.49,0,*75
1500678008.79,43068,22.56,74252.3,6.05,-25.19,-25.61,0,*78
1500678010.01,43069,22.56,74252.0,6.07,-25.13,-25.65,0,*75
1500678011.25,43070,22.56,74258.0,6.07,-25.13,-25.55,0,*7E
1500678012.45,43071,22.56,74254.8,6.07,-25.19,-25.65,0,*76
1500678013.66,43072,22.56,74254.8,6.07,-25.19,-25.65,0,*75
1500678014.9,43073,22.56,74254.3,6.07,-25.19,-25.55,0,*77
1500678016.11,43074,22.56,74252.5,6.07,-25.19,-25.65,0,*73
1500678017.34,43075,22.56,74252.5,6.09,-25.19,-25.65,0,*7C
1500678018.6,43076,22.56,74254.3,6.09,-25.23,-25.71,0,*73
1500678019.83,43077,22.56,74252.0,6.13,-25.19,-25.65,0,*75
1500678021.06,43078,22.56,74252.3,6.09,-25.23,-25.65,0,*78
1500678022.33,43079,22.56,74254.3,6.09,-25.13,-25.55,0,*79
1500678023.58,43080,22.56,74254.3,6.09,-25.19,-25.55,0,*75
1500678024.82,43081,22.56,74252.3,6.09,-25.19,-25.65,0,*77
1500678026.05,43082,22.56,74252.0,6.13,-25.13,-25.49,0,*7B
1500678027.29,43083,22.56,74252.3,6.09,-25.13,-25.65,0,*7F
1500678028.52,43084,22.56,74252.5,6.13,-25.13,-25.61,0,*77
1500678029.76,43085,22.56,74252.8,6.13,-25.13,-25.65,0,*72
1500678031.01,43086,22.56,74254.8,6.09,-25.19,-25.71,0,*75
1500678032.25,43087,22.56,74256.8,6.13,-25.13,-25.61,0,*74
1500678033.48,43088,22.56,74254.5,6.13,-25.13,-25.61,0,*7B
1500678034.72,43089,22.56,74252.5,6.13,-25.13,-25.61,0,*7A
1500678035.94,43090,22.56,74254.0,6.13,-25.19,-25.65,0,*7C
1500678037.2,43091,22.56,74252.5,6.09,-25.19,-25.71,0,*73
1500678038.45,43092,22.56,74254.5,6.13,-25.19,-25.75,0,*7F
1500678039.71,43093,22.56,74254.0,6.09,-25.23,-25.71,0,*78
1500678040.94,43094,22.56,74254.5,6.13,-25.19,-25.65,0,*78
1500678042.17,43095,22.56,74258.0,6.13,-25.19,-25.49,0,*77
1500678043.4,43096,22.56,74252.3,6.13,-25.19,-25.61,0,*7E
1500678044.68,43097,22.56,74256.5,6.13,-25.29,-25.75,0,*79
1500678045.9,43098,22.56,74256.8,6.13,-25.19,-25.65,0,*74
1500678047.16,43099,22.56,74254.5,6.13,-25.29,-25.65,0,*76
1500678048.41,43100,22.56,74254.5,6.13,-25.35,-25.75,0,*7B
1500678049.66,43101,22.56,74256.3,6.13,-25.29,-25.65,0,*76
1500678050.94,43102,22.56,74252.0,6.13,-25.29,-25.75,0,*74
1500678052.19,43103,22.56,74254.5,6.13,-25.35,-25.75,0,*78
1500678053.42,43104,22.56,74252.0,6.15,-25.35,-25.75,0,*79
1500678054.64,43105,22.56,74254.0,6.13,-25.19,-25.65,0,*71
1500678055.9,43106,22.56,74254.8,6.13,-25.35,-25.75,0,*7D
1500678057.18,43107,22.56,74254.5,6.13,-25.29,-25.75,0,*71
1500678058.41,43108,22.56,74250.5,6.13,-25.09,-25.61,0,*79
1500678059.61,43109,22.56,74252.8,6.15,-25.09,-25.61,0,*7E
1500678060.84,43110,22.56,74252.0,6.15,-25.19,-25.75,0,*72
1500678062.09,43111,22.56,74258.3,6.13,-25.29,-25.65,0,*77
1500678063.35,43112,22.56,74252.8,6.13,-25.19,-25.75,0,*76
1500678064.58,43113,22.56,74254.0,6.15,-25.35,-25.75,0,*7F
1500678065.82,43114,22.56,74254.3,6.15,-25.29,-25.81,0,*7E
1500678067.05,43115,22.56,74258.8,6.15,-25.35,-25.75,0,*79
1500678068.31,43116,22.56,74254.8,6.13,-25.35,-25.75,0,*7C
1500678069.54,43117,22.56,74258.8,6.15,-25.35,-25.75,0,*7B
1500678070.76,43118,22.56,74254.0,6.15,-25.35,-25.81,0,*7F
1500678072.01,43119,22.56,74256.3,6.15,-25.45,-25.81,0,*79
1500678073.24,43120,22.56,74254.5,6.15,-25.49,-25.81,0,*7F
1500678074.46,43121,22.56,74256.8,6.15,-25.45,-25.91,0,*73
1500678075.66,43122,22.56,74254.0,6.15,-25.49,-25.91,0,*7C
1500678076.9,43123,22.56,74254.0,6.15,-25.49,-25.97,0,*7B
1500678078.1,43124,22.56,74254.8,6.15,-25.61,-25.91,0,*70
1500678079.34,43125,22.56,74254.8,6.15,-25.45,-25.81,0,*76
1500678080.58,43126,22.56,74252.5,6.15,-25.49,-25.97,0,*7E
1500678081.78,43127,22.56,74256.5,6.15,-25.61,-25.91,0,*73
1500678083.01,43128,22.56,74254.5,6.15,-25.61,-25.97,0,*7A
1500678084.24,43129,22.56,74254.0,6.15,-25.61,-25.97,0,*7B
1500678085.47,43130,22.56,74256.8,6.15,-25.49,-25.81,0,*7E
1500678086.67,43131,22.56,74254.5,6.15,-25.39,-25.87,0,*7E
1500678087.88,43132,22.56,74254.3,6.15,-25.65,-26.07,0,*7F
1500678089.08,43133,22.56,74254.5,6.15,-25.65,-26.07,0,*7E
1500678090.31,43134,22.56,74252.0,6.15,-25.65,-25.97,0,*73
1500678091.54,43135,22.56,74258.0,6.15,-25.45,-25.91,0,*76
1500678092.78,43136,22.56,74252.0,6.17,-25.45,-25.91,0,*77
1500678094.01,43137,22.56,74252.5,6.15,-25.61,-25.97,0,*74
1500678095.26,43138,22.56,74252.0,6.15,-25.45,-25.81,0,*7A
1500678096.51,43139,22.56,74254.5,6.15,-25.45,-25.81,0,*7B
1500678097.74,43140,22.56,74252.5,6.15,-25.49,-25.81,0,*79
1500678098.96,43141,22.56,74252.0,6.15,-25.45,-25.91,0,*75
1500678100.16,43142,22.56,74252.8,6.15,-25.49,-26.07,0,*76
1500678101.4,43143,22.56,74254.3,6.15,-25.65,-25.97,0,*73
1500678102.63,43144,22.56,74254.3,6.15,-25.65,-25.97,0,*74
1500678103.86,43145,22.56,74254.5,6.15,-25.61,-25.97,0,*71
1500678105.09,43146,22.56,74258.5,6.13,-25.61,-26.07,0,*7E
1500678106.32,43147,22.56,74252.5,6.15,-25.61,-25.97,0,*73
1500678107.55,43148,22.56,74252.5,6.15,-25.61,-25.81,0,*7B
1500678108.75,43149,22.56,74254.5,6.15,-25.49,-25.91,0,*71
1500678109.98,43150,22.56,74256.3,6.15,-25.61,-25.97,0,*75
1500678111.19,43151,22.56,74254.3,6.15,-25.65,-26.07,0,*7A
1500678112.39,43152,22.56,74252.5,6.15,-25.61,-26.07,0,*7D
1500678113.59,43153,22.56,74258.0,6.15,-25.61,-26.07,0,*7C
1500678114.83,43154,22.56,74250.8,6.15,-25.49,-25.97,0,*7B
1500678116.06,43155,22.56,74252.0,6.15,-25.61,-25.97,0,*70
1500678117.29,43156,22.56,74252.0,6.15,-25.61,-25.97,0,*73
1500678118.54,43157,22.56,74254.8,6.15,-25.45,-25.75,0,*78
1500678119.8,43158,22.56,74252.5,6.17,-25.55,-25.87,0,*79
1500678121.05,43159,22.56,74252.3,6.17,-25.45,-25.87,0,*79
1500678122.31,43160,22.56,74252.3,6.17,-25.55,-25.91,0,*75
1500678123.51,43161,22.56,74252.8,6.15,-25.61,-26.07,0,*7D
1500678124.74,43162,22.56,74254.3,6.15,-25.61,-25.97,0,*74
1500678125.95,43163,22.56,74254.0,6.15,-25.65,-26.07,0,*7B
1500678127.18,43164,22.56,74252.0,6.15,-25.61,-25.97,0,*72
1500678128.38,43165,22.56,74254.3,6.15,-25.65,-26.07,0,*7D
1500678129.61,43166,22.56,74252.5,6.15,-25.61,-25.97,0,*70
1500678130.85,43167,22.56,74254.5,6.15,-25.75,-26.07,0,*7E
1500678132.05,43168,22.56,74252.3,6.15,-25.65,-26.07,0,*70
1500678133.31,43169,22.56,74254.5,6.17,-25.71,-26.07,0,*76
1500678134.51,43170,22.56,74252.8,6.15,-25.65,-26.07,0,*79
1500678135.75,43171,22.56,74252.5,6.15,-25.61,-25.97,0,*76
1500678136.97,43172,22.56,74254.5,6.13,-25.65,-26.07,0,*7D
1500678138.2,43173,22.56,74254.5,6.15,-25.65,-26.13,0,*7F
1500678139.41,43174,22.56,74254.3,6.15,-25.65,-26.07,0,*7D
1500678140.64,43175,22.56,74252.8,6.17,-25.61,-26.07,0,*7A
1500678141.87,43176,22.56,74254.8,6.15,-25.75,-26.07,0,*7E
1500678143.07,43177,22.56,74252.0,6.15,-25.65,-26.07,0,*7E
1500678144.28,43178,22.56,74254.0,6.15,-25.65,-26.07,0,*71
1500678145.51,43179,22.56,74252.3,6.13,-25.61,-26.07,0,*72
1500678146.74,43180,22.5,74248.5,6.15,-25.65,-26.13,0,*73
1500678148.02,43181,22.56,74254.5,6.17,-25.75,-26.17,0,*75
1500678149.27,43182,22.56,74252.3,6.13,-25.75,-26.23,0,*75
1500678150.52,43183,22.56,74256.0,6.15,-25.75,-26.13,0,*71
1500678151.73,43184,22.56,74252.8,6.15,-25.49,-25.91,0,*70
1500678152.97,43185,22.56,74254.0,6.15,-25.45,-25.81,0,*7C
1500678154.24,43186,22.56,74250.0,6.13,-25.45,-25.81,0,*79
1500678155.5,43187,22.5,74250.0,6.13,-25.65,-25.97,0,*7D
1500678156.73,43188,22.56,74252.0,6.13,-25.65,-26.07,0,*78
1500678157.98,43189,22.56,74254.5,6.13,-25.65,-25.97,0,*73
1500678159.24,43190,22.56,74250.3,6.13,-25.65,-25.97,0,*7B
1500678160.44,43191,22.56,74250.5,6.15,-25.49,-25.91,0,*74
1500678161.69,43192,22.56,74254.3,6.15,-25.45,-25.75,0,*71
1500678162.95,43193,22.56,74252.8,6.15,-25.45,-25.75,0,*70
1500678164.19,43194,22.56,74250.5,6.15,-25.45,-25.81,0,*7C
1500678165.46,43195,22.56,74252.3,6.13,-25.45,-25.81,0,*7B
1500678166.72,43196,22.56,74254.5,6.13,-25.35,-25.75,0,*74
1500678167.99,43197,22.56,74252.0,6.13,-25.45,-25.81,0,*79
1500678169.2,43198,22.56,74254.0,6.15,-25.13,-25.65,0,*79
1500678170.42,43199,22.56,74254.5,6.15,-25.35,-25.75,0,*7D
1500678171.65,43200,22.56,74254.0,6.15,-25.35,-25.75,0,*7E
1500678172.88,43201,22.56,74254.5,6.15,-25.29,-25.65,0,*73
1500678174.14,43202,22.5,74252.8,6.15,-25.29,-25.75,0,*71
1500678175.37,43203,22.56,74252.5,6.15,-25.29,-25.65,0,*71
1500678176.6,43204,22.5,74250.5,6.15,-25.35,-25.75,0,*7A
1500678177.88,43205,22.56,74252.8,6.17,-25.29,-25.71,0,*70
1500678179.08,43206,22.56,74254.8,6.15,-25.35,-25.65,0,*79
1500678180.32,43207,22.56,74252.3,6.15,-25.49,-25.75,0,*72
1500678181.51,43208,22.5,74252.8,6.15,-25.35,-25.91,0,*7C
1500678182.8,43209,22.56,74252.0,6.17,-25.29,-25.75,0,*78
1500678184.03,43210,22.56,74254.8,6.15,-25.49,-25.81,0,*7F
1500678185.25,43211,22.56,74254.3,6.15,-25.45,-25.91,0,*73
1500678186.45,43212,22.56,74254.8,6.15,-25.61,-25.91,0,*76
1500678187.67,43213,22.56,74254.0,6.15,-25.45,-25.91,0,*71
1500678188.87,43214,22.5,74254.8,6.15,-25.61,-26.07,0,*7C
1500678190.1,43215,22.5,74252.5,6.15,-25.61,-25.97,0,*77
1500678191.33,43216,22.56,74254.3,6.15,-25.61,-25.97,0,*74
1500678192.57,43217,22.5,74254.3,6.15,-25.61,-25.97,0,*75
1500678193.8,43218,22.5,74254.3,6.15,-25.49,-25.81,0,*77
1500678195.05,43219,22.56,74252.3,6.17,-25.39,-25.75,0,*78
1500678196.26,43220,22.56,74254.0,6.15,-25.49,-25.91,0,*7D
1500678197.51,43221,22.5,74250.3,6.15,-25.45,-25.81,0,*71
1500678198.74,43222,22.56,74254.0,6.15,-25.49,-25.81,0,*7E
1500678199.97,43223,22.56,74254.8,6.15,-25.49,-25.81,0,*7F
1500678201.17,43224,22.56,74252.3,6.15,-25.61,-25.91,0,*73
1500678202.4,43225,22.56,74256.3,6.17,-25.61,-26.03,0,*78
1500678203.63,43226,22.56,74254.3,6.15,-25.61,-25.81,0,*70
1500678204.86,43227,22.56,74254.5,6.15,-25.61,-25.97,0,*76
1500678206.13,43228,22.5,74254.3,6.17,-25.55,-26.03,0,*72
1500678207.36,43229,22.56,74254.8,6.15,-25.61,-25.97,0,*78
1500678208.59,43230,22.5,74250.3,6.15,-25.75,-26.07,0,*7F
1500678209.79,43231,22.56,74254.0,6.15,-25.65,-26.07,0,*7F
1500678211.05,43232,22.56,74256.0,6.15,-25.75,-26.13,0,*78
1500678212.28,43233,22.5,74252.3,6.15,-25.75,-26.07,0,*7C
1500678213.51,43234,22.56,74252.0,6.17,-25.61,-26.07,0,*7C
1500678214.74,43235,22.56,74256.0,6.15,-25.65,-25.97,0,*71
1500678215.95,43236,22.5,74252.8,6.15,-25.65,-26.07,0,*78
1500678217.18,43237,22.5,74252.5,6.17,-25.61,-26.03,0,*7B
1500678218.41,43238,22.56,74254.5,6.15,-25.61,-25.97,0,*78
1500678219.61,43239,22.56,74252.8,6.15,-25.65,-25.91,0,*7B
1500678220.84,43240,22.5,74252.3,6.13,-25.49,-26.07,0,*71
1500678222.09,43241,22.56,74252.5,6.15,-25.45,-25.81,0,*77
1500678223.3,43242,22.5,74254.3,6.15,-25.49,-25.91,0,*79
1500678224.53,43243,22.56,74252.3,6.15,-25.61,-25.97,0,*74
1500678225.73,43244,22.56,74252.3,6.15,-25.61,-26.07,0,*79
1500678226.93,43245,22.56,74256.8,6.15,-25.65,-25.91,0,*70
1500678228.19,43246,22.5,74248.8,6.13,-25.61,-25.97,0,*77
1500678229.41,43247,22.56,74252.5,6.13,-25.65,-26.07,0,*78
1500678230.67,43248,22.56,74254.5,6.13,-25.61,-25.97,0,*79
1500678231.92,43249,22.5,74252.5,6.13,-25.61,-25.97,0,*78
1500678233.18,43250,22.56,74252.8,6.13,-25.65,-25.97,0,*74
1500678234.43,43251,22.5,74252.3,6.15,-25.81,-26.13,0,*76
1500678235.72,43252,22.5,74250.8,6.17,-25.75,-26.13,0,*7C
1500678236.92,43253,22.5,74254.8,6.15,-25.65,-26.23,0,*7D
1500678238.15,43254,22.5,74254.5,6.15,-25.81,-26.07,0,*76
1500678239.4,43255,22.5,74252.0,6.15,-25.75,-25.97,0,*76
1500678240.61,43256,22.5,74252.3,6.15,-25.65,-26.07,0,*7E
1500678241.86,43257,22.5,74252.8,6.15,-25.81,-26.13,0,*70
1500678243.12,43258,22.5,74254.0,6.15,-25.75,-26.13,0,*74
1500678244.37,43259,22.5,74254.3,6.13,-25.65,-25.97,0,*7D
1500678245.6,43260,22.5,74250.3,6.13,-25.65,-25.91,0,*71
1500678246.87,43261,22.56,74254.8,6.09,-25.55,-26.03,0,*70
1500678248.13,43262,22.5,74252.3,6.09,-25.55,-25.87,0,*7C
1500678249.38,43263,22.5,74254.3,6.13,-25.61,-25.97,0,*70
1500678250.61,43264,22.56,74254.8,6.13,-25.65,-26.07,0,*79
1500678251.87,43265,22.5,74250.3,6.13,-25.65,-25.97,0,*72
1500678253.12,43266,22.5,74254.0,6.13,-25.65,-25.97,0,*71
1500678254.38,43267,22.5,74252.0,6.13,-25.61,-25.97,0,*74
1500678255.64,43268,22.5,74252.3,6.09,-25.71,-26.03,0,*7F
1500678256.9,43269,22.5,74252.8,6.13,-25.65,-25.97,0,*7E
1500678258.15,43270,22.5,74252.8,6.13,-25.65,-25.97,0,*76
1500678259.41,43271,22.5,74254.5,6.13,-25.65,-25.97,0,*77
1500678260.64,43272,22.5,74254.5,6.13,-25.65,-26.07,0,*7E
1500678261.89,43273,22.5,74248.0,6.13,-25.65,-25.97,0,*75
1500678263.15,43274,22.5,74254.5,6.13,-25.61,-25.97,0,*76
1500678264.4,43275,22.5,74248.8,6.13,-25.49,-25.81,0,*7A
1500678265.62,43276,22.5,74254.5,6.13,-25.61,-25.91,0,*72
1500678266.85,43277,22.5,74254.8,6.13,-25.49,-25.91,0,*79
1500678268.11,43278,22.5,74252.3,6.13,-25.65,-25.97,0,*7E
1500678269.38,43279,22.5,74254.3,6.13,-25.45,-25.75,0,*71
1500678270.61,43280,22.5,74250.3,6.13,-25.49,-25.91,0,*71
1500678271.83,43281,22.5,74250.3,6.13,-25.61,-25.91,0,*7A
1500678273.06,43282,22.5,74254.5,6.13,-25.49,-25.91,0,*73
1500678274.33,43283,22.5,74252.3,6.09,-25.71,-26.03,0,*7A
1500678275.58,43284,22.5,74252.8,6.13,-25.61,-25.97,0,*79
1500678276.82,43285,22.5,74254.5,6.09,-25.65,-26.03,0,*79
1500678278.07,43286,22.5,74252.3,6.13,-25.75,-26.07,0,*74
1500678279.35,43287,22.5,74252.8,6.13,-25.75,-26.13,0,*70
1500678280.61,43288,22.5,74252.0,6.15,-25.75,-26.13,0,*79
1500678281.87,43289,22.5,74252.3,6.13,-25.65,-25.97,0,*70
1500678283.12,43290,22.5,74254.0,6.13,-25.75,-26.07,0,*73
1500678284.37,43291,22.5,74254.5,6.13,-25.75,-26.07,0,*72
1500678285.63,43292,22.5,74252.0,6.09,-25.87,-26.13,0,*72
1500678286.86,43293,22.5,74252.8,6.15,-25.75,-26.23,0,*70
1500678288.14,43294,22.5,74250.3,6.13,-25.81,-26.13,0,*79
1500678289.43,43295,22.5,74254.8,6.09,-25.81,-25.97,0,*7C
1500678290.72,43296,22.5,74254.5,6.09,-25.71,-26.13,0,*7F
1500678291.97,43297,22.5,74252.8,6.13,-25.61,-25.97,0,*7B
1500678293.23,43298,22.5,74250.5,6.13,-25.49,-25.97,0,*7E
1500678294.46,43299,22.5,74254.5,6.09,-25.65,-25.87,0,*7B
1500678295.69,43300,22.5,74252.0,6.09,-25.65,-25.87,0,*7A
1500678296.93,43301,22.5,74252.3,6.09,-25.65,-26.03,0,*74
1500678298.16,43302,22.5,74252.5,6.13,-25.65,-26.07,0,*78
1500678299.44,43303,22.5,74250.5,6.09,-25.81,-26.13,0,*7D
1500678300.7,43304,22.5,74250.3,6.13,-25.75,-26.07,0,*7F
1500678301.95,43305,22.5,74248.8,6.09,-25.65,-26.13,0,*71
1500678303.24,43306,22.5,74254.3,6.09,-25.81,-26.13,0,*78
1500678304.49,43307,22.5,74254.0,6.13,-25.65,-25.97,0,*77
1500678305.79,43308,22.5,74252.8,6.09,-25.71,-25.97,0,*76
1500678307.02,43309,22.5,74252.8,6.09,-25.65,-26.03,0,*7C
1500678308.29,43310,22.5,74252.3,6.09,-25.71,-26.03,0,*71
1500678309.56,43311,22.5,74252.0,6.09,-25.71,-26.03,0,*70
1500678310.84,43312,22.5,74252.3,6.13,-25.75,-25.97,0,*72
1500678312.1,43313,22.5,74250.8,6.09,-25.65,-25.97,0,*79
1500678313.34,43314,22.5,74252.3,6.09,-25.65,-26.03,0,*70
1500678314.61,43315,22.5,74252.8,6.09,-25.71,-26.03,0,*74
1500678315.9,43316,22.5,74252.0,6.09,-25.71,-25.97,0,*79
1500678317.16,43317,22.5,74252.0,6.09,-25.65,-25.97,0,*7D
1500678318.39,43318,22.5,74252.3,6.13,-25.65,-26.07,0,*73
1500678319.68,43319,22.5,74254.0,6.09,-25.71,-26.13,0,*79
1500678320.92,43320,22.5,74252.5,6.09,-25.65,-26.03,0,*77
1500678322.18,43321,22.5,74254.0,6.09,-25.65,-26.13,0,*77
1500678323.4,43322,22.5,74254.5,6.13,-25.65,-26.23,0,*7C
1500678324.67,43323,22.5,74254.8,6.09,-25.71,-26.03,0,*71
1500678325.93,43324,22.5,74252.8,6.09,-25.65,-26.13,0,*72
1500678327.2,43325,22.5,74254.5,6.09,-25.55,-26.03,0,*71
1500678328.44,43326,22.5,74252.3,6.09,-25.65,-26.03,0,*71
1500678329.67,43327,22.5,74254.0,6.09,-25.49,-25.87,0,*71
1500678330.93,43328,22.5,74252.5,6.09,-25.65,-26.13,0,*7E
1500678332.17,43329,22.5,74252.8,6.09,-25.65,-26.03,0,*7E
1500678333.4,43330,22.5,74254.5,6.13,-25.49,-25.91,0,*7B
1500678334.66,43331,22.5,74254.3,6.09,-25.55,-25.87,0,*7B
1500678335.92,43332,22.5,74248.8,6.09,-25.65,-25.97,0,*7A
1500678337.14,43333,22.5,74254.8,6.13,-25.65,-25.91,0,*76
1500678338.37,43334,22.5,74254.5,6.13,-25.61,-26.07,0,*79
1500678339.61,43335,22.5,74250.3,6.09,-25.65,-26.03,0,*73
1500678340.87,43336,22.5,74254.8,6.09,-25.55,-25.91,0,*7B
1500678342.13,43337,22.5,74250.8,6.09,-25.65,-25.97,0,*7F
1500678343.39,43338,22.5,74252.0,6.13,-25.65,-25.97,0,*7B
1500678344.65,43339,22.5,74252.8,6.09,-25.65,-25.97,0,*71
1500678345.94,43340,22.5,74252.5,6.09,-25.71,-26.13,0,*75
1500678347.21,43341,22.5,74252.0,6.09,-25.71,-26.03,0,*75
1500678348.48,43342,22.5,74252.8,6.09,-25.71,-26.03,0,*76
1500678349.73,43343,22.5,74248.0,6.13,-25.65,-25.97,0,*77
1500678351.02,43344,22.5,74252.5,6.09,-25.71,-26.13,0,*71
1500678352.26,43345,22.5,74248.5,6.09,-25.65,-26.03,0,*74
1500678353.49,43346,22.5,74254.5,6.13,-25.65,-26.07,0,*78
1500678354.72,43347,22.5,74248.5,6.09,-25.65,-25.87,0,*79
1500678355.98,43348,22.5,74252.0,6.09,-25.65,-25.97,0,*77
1500678357.24,43349,22.5,74252.0,6.09,-25.55,-25.87,0,*74
1500678358.51,43350,22.5,74254.0,6.09,-25.49,-25.97,0,*70
1500678359.73,43351,22.5,74248.8,6.13,-25.49,-25.91,0,*7C
1500678361.0,43352,22.5,74252.5,6.09,-25.55,-26.03,0,*71
1500678362.24,43353,22.5,74250.3,6.09,-25.65,-26.03,0,*73
1500678363.53,43354,22.5,74248.5,6.09,-25.71,-26.13,0,*70
1500678364.78,43355,22.5,74252.5,6.13,-25.65,-25.97,0,*70
1500678366.02,43356,22.5,74252.0,6.09,-25.65,-26.03,0,*76
1500678367.29,43357,22.5,74254.5,6.09,-25.71,-26.03,0,*72
1500678368.58,43358,22.5,74248.8,6.09,-25.71,-26.13,0,*7C
1500678369.82,43359,22.5,74254.5,6.09,-25.65,-26.03,0,*79
1500678371.06,43360,22.5,74254.3,6.09,-25.65,-26.03,0,*73
1500678372.32,43361,22.5,74248.5,6.09,-25.71,-26.03,0,*77
1500678373.62,43362,22.5,74254.5,6.09,-25.71,-26.13,0,*75
1500678374.85,43363,22.5,74248.8,6.09,-25.65,-26.03,0,*70
1500678376.11,43364,22.5,74252.8,6.13,-25.65,-25.97,0,*72
1500678377.4,43365,22.5,74252.3,6.09,-25.71,-26.13,0,*72
1500678378.66,43366,22.5,74250.5,6.09,-25.81,-26.03,0,*7F
1500678379.9,43367,22.5,74248.8,6.09,-25.65,-26.03,0,*74
1500678381.14,43368,22.5,74250.8,6.09,-25.65,-26.03,0,*7B
1500678382.43,43369,22.5,74250.3,6.09,-25.55,-25.97,0,*77
1500678383.72,43370,22.5,74248.8,6.09,-25.55,-25.97,0,*7F
1500678384.99,43371,22.5,74248.3,6.09,-25.71,-26.03,0,*76
1500678386.25,43372,22.5,74248.3,6.09,-25.49,-25.97,0,*70
1500678387.49,43373,22.5,74250.5,6.09,-25.65,-26.03,0,*71
1500678388.76,43374,22.5,74254.0,6.09,-25.55,-26.03,0,*75
1500678390.05,43375,22.5,74250.5,6.09,-25.71,-25.97,0,*7C
1500678391.34,43376,22.5,74252.0,6.09,-25.55,-25.97,0,*79
1500678392.6,43377,22.5,74252.3,6.09,-25.65,-25.97,0,*7B
1500678393.86,43378,22.5,74252.3,6.13,-25.49,-25.97,0,*71
1500678395.1,43379,22.5,74250.8,6.09,-25.49,-25.87,0,*7A
1500678396.36,43380,22.5,74252.8,6.09,-25.55,-25.87,0,*71
1500678397.65,43381,22.5,74250.5,6.09,-25.55,-25.97,0,*71
1500678398.88,43382,22.5,74250.5,6.09,-25.49,-25.87,0,*7E
1500678400.15,43383,22.5,74250.5,6.09,-25.55,-25.87,0,*72
1500678401.42,43384,22.5,74250.5,6.13,-25.29,-25.75,0,*78
1500678402.71,43385,22.5,74252.8,6.09,-25.55,-25.81,0,*72
1500678403.99,43386,22.5,74248.5,6.13,-25.45,-25.75,0,*70
1500678405.25,43387,22.5,74252.3,6.09,-25.55,-25.87,0,*76
1500678406.5,43388,22.5,74252.5,6.13,-25.29,-25.65,0,*75
1500678407.75,43389,22.5,74250.0,6.09,-25.35,-25.81,0,*78
1500678409.01,43390,22.5,74248.3,6.09,-25.39,-25.81,0,*7C
1500678410.27,43391,22.5,74250.0,6.09,-25.49,-25.81,0,*7A
1500678411.55,43392,22.5,74248.3,6.13,-25.45,-25.75,0,*75
1500678412.8,43393,22.5,74248.5,6.13,-25.45,-25.65,0,*75
1500678414.05,43394,22.5,74252.0,6.13,-25.35,-25.75,0,*74
1500678415.33,43395,22.5,74252.0,6.13,-25.45,-25.75,0,*72
1500678416.6,43396,22.5,74250.5,6.13,-25.45,-25.81,0,*7A
1500678417.87,43397,22.5,74254.5,6.13,-25.45,-25.81,0,*7B
1500678419.12,43398,22.5,74252.0,6.13,-25.49,-25.81,0,*78
1500678420.35,43399,22.5,74252.0,6.15,-25.49,-25.81,0,*7F
1500678421.55,43400,22.5,74252.3,6.15,-25.61,-25.91,0,*73
1500678422.75,43401,22.5,74252.8,6.15,-25.61,-25.91,0,*72
1500678424.02,43402,22.5,74252.5,6.09,-25.71,-26.03,0,*75
1500678425.25,43403,22.5,74250.8,6.13,-25.65,-26.07,0,*7E
1500678426.5,43404,22.5,74250.3,6.13,-25.65,-25.97,0,*73
1500678427.77,43405,22.5,74252.8,6.09,-25.71,-26.07,0,*76
1500678428.99,43406,22.5,74250.5,6.13,-25.61,-25.91,0,*73
1500678430.22,43407,22.5,74254.5,6.13,-25.49,-25.91,0,*78
1500678431.44,43408,22.5,74250.3,6.13,-25.61,-25.91,0,*7D
1500678432.7,43409,22.5,74252.3,6.13,-25.61,-25.97,0,*7A
1500678433.96,43410,22.5,74248.5,6.13,-25.49,-25.97,0,*78
1500678435.18,43411,22.5,74252.8,6.13,-25.49,-25.91,0,*7F
1500678436.44,43412,22.5,74252.3,6.13,-25.49,-25.81,0,*7D
1500678437.66,43413,22.5,74250.8,6.13,-25.61,-25.91,0,*77
1500678438.91,43414,22.5,74252.8,6.13,-25.61,-25.97,0,*76
1500678440.18,43415,22.5,74248.0,6.09,-25.55,-25.87,0,*7A
1500678441.43,43416,22.5,74252.8,6.13,-25.49,-25.81,0,*79
1500678442.68,43417,22.5,74254.5,6.13,-25.45,-25.65,0,*7E
1500678443.91,43418,22.5,74252.0,6.13,-25.49,-25.91,0,*76
1500678445.16,43419,22.5,74252.5,6.13,-25.65,-25.97,0,*7F
1500678446.42,43420,22.5,74254.8,6.13,-25.65,-25.97,0,*75
1500678447.64,43421,22.5,74252.3,6.13,-25.49,-25.91,0,*7C
1500678448.87,43422,22.5,74250.5,6.13,-25.65,-25.91,0,*71
1500678450.13,43423,22.5,74252.5,6.09,-25.65,-25.97,0,*7D
1500678451.39,43424,22.5,74250.8,6.13,-25.61,-25.97,0,*75
1500678452.62,43425,22.5,74250.3,6.15,-25.61,-25.97,0,*72
1500678453.85,43426,22.5,74254.8,6.15,-25.65,-25.97,0,*75
1500678455.07,43427,22.5,74254.5,6.13,-25.61,-25.91,0,*70
1500678456.3,43428,22.5,74256.5,6.13,-25.61,-25.91,0,*7F
1500678457.52,43429,22.5,74250.3,6.13,-25.49,-25.91,0,*74
1500678458.78,43430,22.5,74254.0,6.13,-25.65,-25.97,0,*74
1500678460.03,43431,22.5,74252.0,6.13,-25.65,-25.97,0,*75
1500678461.29,43432,22.5,74254.5,6.13,-25.49,-25.97,0,*78
1500678462.55,43433,22.5,74250.5,6.13,-25.61,-25.97,0,*73
1500678463.8,43434,22.5,74252.3,6.13,-25.65,-25.97,0,*70
1500678465.0,43435,22.5,74252.0,6.15,-25.61,-25.91,0,*75
1500678466.23,43436,22.5,74254.0,6.13,-25.61,-25.91,0,*70
1500678467.47,43437,22.5,74254.3,6.13,-25.45,-25.91,0,*77
1500678468.7,43438,22.5,74250.3,6.13,-25.49,-25.91,0,*74
1500678469.95,43439,22.5,74250.5,6.13,-25.49,-25.97,0,*73
1500678471.18,43440,22.5,74250.3,6.13,-25.61,-25.91,0,*71
1500678472.41,43441,22.5,74252.5,6.13,-25.65,-26.07,0,*78
1500678473.64,43442,22.44,74248.0,6.15,-25.49,-25.97,0,*79
1500678474.87,43443,22.5,74250.3,6.15,-25.61,-25.97,0,*72
1500678476.07,43444,22.5,74252.3,6.15,-25.61,-26.07,0,*7F
1500678477.33,43445,22.5,74252.0,6.13,-25.61,-25.97,0,*72
1500678478.58,43446,22.5,74252.3,6.13,-25.49,-25.81,0,*7C
1500678479.85,43447,22.5,74252.3,6.09,-25.65,-25.97,0,*7F
1500678481.07,43448,22.5,74252.3,6.13,-25.61,-26.07,0,*75
1500678482.31,43449,22.5,74252.8,6.15,-25.65,-25.97,0,*7C
1500678483.53,43450,22.5,74252.8,6.13,-25.61,-26.07,0,*7C
1500678484.76,43451,22.5,74254.0,6.15,-25.61,-25.97,0,*71
1500678485.97,43452,22.5,74254.0,6.15,-25.61,-25.91,0,*74
1500678487.2,43453,22.5,74254.0,6.15,-25.61,-25.97,0,*73
1500678488.4,43454,22.5,74252.8,6.15,-25.65,-26.07,0,*7A
1500678489.6,43455,22.5,74254.3,6.15,-25.61,-26.07,0,*7F
1500678490.86,43456,22.5,74256.0,6.13,-25.61,-25.97,0,*70
1500678492.11,43457,22.5,74254.0,6.13,-25.65,-25.97,0,*75
1500678493.34,43458,22.5,74252.3,6.13,-25.65,-26.07,0,*70
1500678494.6,43459,22.5,74252.5,6.13,-25.65,-25.97,0,*7B
1500678495.85,43460,22.5,74254.5,6.13,-25.61,-25.97,0,*75
1500678497.08,43461,22.5,74252.3,6.13,-25.65,-26.07,0,*7A
1500678498.31,43462,22.5,74254.3,6.13,-25.65,-26.07,0,*79
1500678499.56,43463,22.5,74254.8,6.13,-25.61,-25.97,0,*76
1500678500.82,43464,22.5,74254.5,6.13,-25.75,-26.07,0,*7E
1500678502.05,43465,22.5,74252.3,6.15,-25.65,-25.97,0,*72
1500678503.28,43466,22.5,74254.8,6.15,-25.49,-25.97,0,*7F
1500678504.48,43467,22.5,74254.0,6.15,-25.61,-25.91,0,*72
1500678505.69,43468,22.5,74252.3,6.15,-25.65,-26.07,0,*75
1500678506.89,43469,22.5,74252.3,6.15,-25.61,-26.07,0,*70
1500678508.12,43470,22.5,74254.0,6.15,-25.81,-26.07,0,*76
1500678509.4,43471,22.5,74256.3,6.13,-25.75,-26.13,0,*7F